Regional Weather Roundup
Issued by NWS

Home | Current Version | Previous Version | Text Only | Print | Product List | Glossary Off
Versions: 1 2 3 4 5 6 7 8 9 10 11 12 13 14 15 16 17 18 19 20 21 22 23 24 25 26 27 28 29 30 31 32 33 34 35 36 37 38 39 40 41 42 43 44 45 46 47 48 49 50

000
ASUS44 KMEG 170110
RWRTN
TENNESSEE HOURLY STATE WEATHER ROUNDUP
NATIONAL WEATHER SERVICE MEMPHIS TN
700 PM CST SAT DEC 16 2017

TNZ002-004-019-021-049-052-054-088>092-170200-
WEST TENNESSEE

CITY           SKY/WX    TMP DP  RH WIND       PRES   REMARKS
MEMPHIS INTL   CLOUDY    46  31  55 S6        30.18R
NWS MEMPHIS      N/A     48 N/A N/A MISG        N/A
JACKSON        PTCLDY    45  31  58 S5        30.18S
DYERSBURG      CLOUDY    46  30  53 CALM        N/A
SOMERVILLE     CLEAR     46  30  53 CALM      30.16S
COVINGTON      CLEAR     43  32  65 CALM      30.17S
UNION CITY     CLEAR     45  30  57 S9        30.16R
BOLIVAR        CLEAR     46  30  53 SE6       30.18R
PARIS          PTCLDY    45  30  57 S8        30.16R
HUNTINGDON     CLEAR     46  32  57 S7        30.17R
LEXINGTON      CLEAR     46  30  53 S3        30.19S
SELMER         PTCLDY    46  30  53 S6        30.19R
SAVANNAH       CLEAR     39  32  75 S3        30.20R
$$

TNZ008-025-027-028-033-062-065-066-170200-
NORTH MIDDLE TENNESSEE

CITY           SKY/WX    TMP DP  RH WIND       PRES   REMARKS
NASHVILLE      CLOUDY    43  30  60 S3        30.21R
PORTLAND       CLEAR     41  30  65 S8        30.19R
CLARKSVILLE    CLOUDY    44  27  51 S5        30.18R
SMYRNA         PTCLDY    41  30  65 S5        30.24R
COOKEVILLE     CLEAR     30  27  86 CALM      30.21R
GALLATIN       CLEAR     43  30  61 S3        30.23R
CROSSVILLE     CLOUDY    36  26  67 S3        30.21R
$$

TNZ061-075-076-078-094-096-097-170200-
SOUTH MIDDLE TENNESSEE

CITY           SKY/WX    TMP DP  RH WIND       PRES   REMARKS
FAYETTEVILLE   CLEAR     41  30  65 S7        30.22R
TULLAHOMA      CLEAR     41  28  60 CALM      30.21S
WINCHESTER     CLEAR     36  27  69 SE3       30.23S
MCMINNVILLE    CLEAR     36  28  75 CALM      30.22R
COLUMBIA       CLEAR     45  30  57 CALM      30.19R
SHELBYVILLE    CLEAR     37  30  75 S3        30.22R
$$

TNZ017-018-042-046-047-170200-
NORTHEAST TENNESSEE

CITY           SKY/WX    TMP DP  RH WIND       PRES   REMARKS
TRI CITIES     CLOUDY    32  26  78 CALM      30.24R
ELIZABETHTON   CLEAR     30  27  86 CALM      30.26R
$$

TNZ012-013-036-069-073-074-170200-
CENTRAL EAST TENNESSEE

CITY           SKY/WX    TMP DP  RH WIND       PRES   REMARKS
KNOXVILLE      CLOUDY    40  30  67 CALM      30.23S
OAK RIDGE      CLOUDY    35  29  78 CALM      30.25S
DOWNTOWN KNOXV CLEAR     34  30  86 CALM      30.25R
GATLINBURG     CLEAR     32  27  80 CALM      30.24S
MORRISTOWN     CLEAR     36  27  69 CALM      30.23S
JACKSBORO      CLEAR     34  28  80 CALM      30.26R
$$

TNZ083-085-099-170200-
SOUTHEAST TENNESSEE

CITY           SKY/WX    TMP DP  RH WIND       PRES   REMARKS
CHATTANOOGA    MOCLDY    37  30  75 CALM      30.26R
DAYTON         PTCLDY    36  32  87 CALM      30.24R
$$

SKY/WX REPORTED AS FAIR MEANS FEW OR NO CLOUDS BELOW
12 THOUSAND FEET.





USA.gov is the U.S. government's official web portal to all federal, state and local government web resources and services.